Location: Auckland
(36.8670°S, 174.7670°E)
Time: 22:01:06
(UTC+12:00)

Tiros 1 despin weight - Pass Details

Date: 23 July 2019
Orbit: 594 x 642 km, 48.2° (Epoch: 26 August)

Event Time Altitude Azimuth Distance (km) Brightness Sun altitude
Rises 23:23:22 0° 298° (WNW) 2,836 - -68.2°
Reaches altitude 10° 23:25:40 10° 294° (WNW) 1,937 - -68.5°
Maximum altitude 23:30:04 65° 212° (SSW) 664 - -69.1°
Drops below altitude 10° 23:34:32 10° 129° (SE) 1,954 - -69.6°
Sets 23:36:51 0° 126° (SE) 2,864 - -69.9°
